DW4779 Weather Reports


time (UTC)temp
C
wind
direction
speed
KPH
gust
KPH
rain 1hr
cm
rain 24hr
cm
rain mn
cm
humidity
%
barometer
mb
20260503013049 19 190 0.0 0.0 0.00 0.00 0.00 32 1014.8
20260503011601 18 0 0.0 3.2 0.00 0.00 0.00 33 1015.0
20260503010054 18 190 0.0 1.6 0.00 0.00 0.00 32 1015.1
20260503004557 18 0 0.0 3.2 0.00 0.00 0.00 34 1015.2
20260503003048 18 224 0.0 3.2 0.00 0.00 0.00 32 1015.4
20260503001550 19 0 0.0 6.4 0.00 0.00 0.00 32 1015.5
20260503000048 20 190 0.0 4.8 0.00 0.00 0.00 30 1015.6
20260502234552 20 190 1.6 9.7 0.00 0.00 0.00 31 1015.8
20260502233047 19 0 0.0 3.2 0.00 0.00 0.00 33 1016.0
20260502231545 20 190 3.2 8.0 0.00 0.00 0.00 31 1016.1
20260502230044 20 190 1.6 16.1 0.00 0.00 0.00 33 1016.2
20260502224539 20 190 3.2 14.5 0.00 0.00 0.00 31 1016.4
20260502223042 20 224 3.2 8.0 0.00 0.00 0.00 30 1016.6
20260502221550 20 0 1.6 12.9 0.00 0.00 0.00 31 1016.9
20260502220048 20 190 4.8 9.7 0.00 0.00 0.00 33 1017.2
20260502214544 18 190 6.4 14.5 0.00 0.00 0.00 34 1017.4
20260502213058 20 190 1.6 8.0 0.00 0.00 0.00 33 1017.6
20260502211608 20 224 1.6 8.0 0.00 0.00 0.00 32 1017.6
20260502210046 19 190 8.0 16.1 0.00 0.00 0.00 33 1017.7
20260502204547 18 0 1.6 8.0 0.00 0.00 0.00 35 1017.8
20260502203053 19 190 6.4 11.3 0.00 0.00 0.00 34 1017.9
20260502201543 19 224 6.4 14.5 0.00 0.00 0.00 34 1018.1
20260502200042 19 190 4.8 11.3 0.00 0.00 0.00 35 1018.3
20260502194554 18 190 3.2 11.3 0.00 0.00 0.00 37 1018.5
20260502193050 18 190 4.8 11.3 0.00 0.00 0.00 37 1018.5
20260502191547 18 224 1.6 9.7 0.00 0.00 0.00 36 1018.5
20260502190046 18 190 1.6 4.8 0.00 0.00 0.00 36 1018.7
20260502184554 18 190 3.2 9.7 0.00 0.00 0.00 34 1018.7
20260502183057 18 190 3.2 11.3 0.00 0.00 0.00 35 1018.9
20260502181547 18 190 1.6 17.7 0.00 0.00 0.00 34 1018.9
20260502163054 17 190 1.6 17.7 0.00 0.00 0.00 38 1019.4
20260502161543 17 190 4.8 11.3 0.00 0.00 0.00 37 1019.6
20260502151600 15 44 8.0 16.1 0.00 0.00 0.00 41 1019.5
20260502123051 8 190 3.2 6.4 0.00 0.00 0.00 54 1017.7
20260502121551 8 44 3.2 8.0 0.00 0.00 0.00 54 1017.7
20260502114607 7 45 0.0 1.6 0.00 0.00 0.00 56 1017.4
20260502113050 7 0 0.0 0.0 0.00 0.00 0.00 52 1017.4
20260502111550 7 0 0.0 0.0 0.00 0.00 0.00 52 1017.0
20260502110049 7 0 0.0 1.6 0.00 0.00 0.00 50 1016.5
20260502104552 8 0 0.0 1.6 0.00 0.00 0.00 47 1016.2
20260502103048 7 0 0.0 8.0 0.00 0.00 0.00 50 1016.2
20260502101616 6 224 1.6 6.4 0.00 0.00 0.00 52 1016.1
20260502090107 5 190 6.4 8.0 0.00 0.00 0.00 50 1015.3
20260502070058 5 224 0.0 1.6 0.00 0.00 0.00 43 1015.0
20260502064550 5 0 0.0 1.6 0.00 0.00 0.00 42 1015.0
20260502063050 6 0 0.0 0.0 0.00 0.00 0.00 40 1014.9
20260502061552 6 0 0.0 0.0 0.00 0.00 0.00 39 1014.8
20260502060040 6 0 0.0 0.0 0.00 0.00 0.00 38 1014.9
20260502054542 7 190 0.0 1.6 0.00 0.00 0.00 36 1014.9
20260502053048 7 0 0.0 0.0 0.00 0.00 0.00 35 1014.8
20260502051603 8 0 1.6 4.8 0.00 0.00 0.00 33 1014.8
20260502050049 8 0 0.0 3.2 0.00 0.00 0.00 33 1014.7
20260502044549 8 0 0.0 3.2 0.00 0.00 0.00 32 1014.7
20260502043050 10 0 1.6 6.4 0.00 0.00 0.00 32 1014.5
20260502041549 10 190 3.2 4.8 0.00 0.00 0.00 32 1014.6
20260502040056 11 0 0.0 0.0 0.00 0.00 0.00 31 1014.5
20260502034547 12 0 0.0 1.6 0.00 0.00 0.00 30 1014.3
20260502033051 13 0 0.0 3.2 0.00 0.00 0.00 27 1014.1
20260502031551 14 0 0.0 3.2 0.00 0.00 0.00 25 1014.1
20260502030055 15 190 3.2 9.7 0.00 0.00 0.00 25 1013.9
20260502024545 17 224 0.0 0.0 0.00 0.00 0.00 21 1013.6
20260502023116 18 0 0.0 0.0 0.00 0.00 0.00 20 1013.6
20260502021552 18 0 0.0 1.6 0.00 0.00 0.00 19 1013.5
20260502014549 21 0 0.0 0.0 0.00 0.00 0.00 17 1013.5